Gene Autry, OK

5:25 AM CDT on July 30, 2016 (GMT -0500)
Ardmore Municipal

Weather History for KADM - March, 2014

Change the Weather History Date:

Saturday, March 1, 2014

  Actual Average Record
Temperature  
Mean Temperature 50 °F -  
Max Temperature 62 °F 56 °F 95 °F (2006)
Min Temperature 37 °F 37 °F 28 °F (2009)
Degree Days  
Heating Degree Days 14    
Moisture  
Dew Point 47 °F    
Average Humidity 95    
Maximum Humidity 100    
Minimum Humidity 72    
Precipitation  
Precipitation 0.00 in - - ()
Sea Level Pressure  
Sea Level Pressure 29.95 in    
Wind  
Wind Speed 7 mph (ENE)    
Max Wind Speed 22 mph    
Max Gust Speed 31 mph    
Visibility 4 miles    
Events      
Averages and records for this station are not official NWS values.
T = Trace of Precipitation, MM = Missing Value Source: NWS Daily Summary

Daily Weather History Graph

Daily Weather History Graph

Search for Another Location

Airport or City:

Trip Planner

Search our weather history database for the weather conditions in past years. The results will help you decide how hot, cold, wet, or windy it might be!

Date:

Astronomy

Mar. 01, 2014 Rise Set
Actual Time 6:56 AM CST 6:24 PM CST
Civil Twilight 6:31 AM CST 6:49 PM CST
Nautical Twilight 6:02 AM CST 7:18 PM CST
Astronomical Twilight 5:33 AM CST 7:47 PM CST
Moon 6:53 AM CST (3/1) 7:09 PM CST (3/1)
Length of Visible Light 12h 17m
Length of Day
11h 27m
New Moon, 0% of the Moon is Illuminated
Mar 1
New Moon
Mar 8
First Quarter
Mar 16
Full
Mar 23
Last Quarter
Mar 30
New

Hourly Weather History & Observations

Time (CST) Temp. Windchill Dew Point Humidity Pressure Visibility Wind Dir Wind Speed Gust Speed Precip Events Conditions
12:15 AM 47.7 °F - 47.3 °F 99% 29.90 in 2.5 mi ENE 6.9 mph - N/A   Overcast
12:35 AM 47.8 °F - 47.5 °F 99% 29.91 in 3.0 mi East 8.1 mph - N/A   Overcast
12:55 AM 47.7 °F - 47.5 °F 99% 29.91 in 2.5 mi East 8.1 mph - N/A   Overcast
1:15 AM 47.7 °F - 47.5 °F 99% 29.91 in 2.0 mi East 5.8 mph - N/A   Overcast
1:35 AM 47.7 °F - 47.7 °F 100% 29.91 in 2.0 mi East 8.1 mph - N/A   Overcast
1:55 AM 47.7 °F - 47.7 °F 100% 29.91 in 1.8 mi East 5.8 mph - N/A   Overcast
2:15 AM 47.5 °F - 47.5 °F 100% 29.92 in 1.8 mi East 6.9 mph - N/A   Overcast
2:35 AM 47.3 °F - 47.3 °F 100% 29.91 in 2.0 mi East 6.9 mph - N/A   Overcast
2:55 AM 47.3 °F - 47.3 °F 100% 29.91 in 1.8 mi East 5.8 mph - N/A   Overcast
3:15 AM 47.3 °F - 47.3 °F 100% 29.91 in 1.8 mi East 8.1 mph - N/A   Overcast
3:35 AM 47.3 °F - 47.3 °F 100% 29.91 in 1.8 mi East 8.1 mph - N/A   Overcast
3:55 AM 47.5 °F - 47.5 °F 100% 29.91 in 1.8 mi East 6.9 mph - N/A   Overcast
4:15 AM 47.3 °F - 47.3 °F 100% 29.91 in 2.0 mi ENE 5.8 mph - N/A   Overcast
4:35 AM 47.3 °F - 47.3 °F 100% 29.91 in 2.0 mi East 5.8 mph - N/A   Overcast
4:55 AM 47.3 °F - 47.3 °F 100% 29.92 in 2.0 mi East 4.6 mph - N/A   Overcast
5:15 AM 47.3 °F - 47.3 °F 100% 29.93 in 2.0 mi ENE 5.8 mph - N/A   Overcast
5:35 AM 47.3 °F - 47.3 °F 100% 29.95 in 2.5 mi East 3.5 mph - N/A   Overcast
6:55 AM 46.4 °F - 46.4 °F 100% 29.98 in 2.5 mi Calm Calm - N/A   Overcast
7:55 AM 48.2 °F - 48.2 °F 100% 29.99 in 1.8 mi Calm Calm - N/A   Overcast
8:05 AM 48.2 °F - 48.2 °F 100% 29.99 in 1.8 mi Calm Calm - N/A   Overcast
8:55 AM 50.0 °F - 50.0 °F 100% 30.00 in 2.5 mi NE 4.6 mph - N/A   Overcast
9:55 AM 50.0 °F - 50.0 °F 100% 30.01 in 4.0 mi East 9.2 mph - N/A   Overcast
10:55 AM 51.8 °F - 51.8 °F 100% 30.00 in 4.0 mi East 9.2 mph - N/A   Overcast
11:55 AM 51.8 °F - 51.8 °F 100% 29.99 in 7.0 mi East 4.6 mph - N/A   Overcast
12:55 PM 55.4 °F - 53.6 °F 94% 29.97 in 5.0 mi ESE 4.6 mph - N/A   Overcast
1:55 PM 57.2 °F - 53.6 °F 88% 29.95 in 7.0 mi Calm Calm - N/A   Overcast
2:55 PM 60.8 °F - 53.6 °F 77% 29.92 in 7.0 mi Calm Calm - N/A   Scattered Clouds
3:55 PM 62.6 °F - 53.6 °F 72% 29.92 in 7.0 mi Calm Calm - N/A   Clear
10:35 PM 43.5 °F 35.0 °F 36.9 °F 77% 30.02 in 7.0 mi North 20.7 mph 31.1 mph N/A   Overcast
10:55 PM 40.5 °F 30.9 °F 34.2 °F 78% 30.03 in 7.0 mi North 20.7 mph 28.8 mph N/A   Overcast
11:15 PM 39.4 °F 29.5 °F 33.4 °F 79% 30.03 in 10.0 mi North 20.7 mph 28.8 mph N/A   Overcast
11:35 PM 37.4 °F 26.6 °F 32.4 °F 82% 30.05 in 7.0 mi North 21.9 mph 31.1 mph N/A   Overcast